When you browse on this site, cookies collect data to enhance your experience and personalize the content and advertising you see.
Visit our Privacy Policy to learn more. By continuing to use the site, you agree to this use of cookies and data.
  • Em Portugal
  • Lista de países
  • Para 7 dias
  • Temperatura da água
  • Mapas de satélite
  • Mapa do tempo
  • Widgets de tempo
  • user-avatar
    Iniciar Sessão

    Previsão horária em Batina

    Hoje, 17 Janeiro, Quinta-feira

    Tempo Temperatura Precipitação Vento Pressão Humidade
    00:00 +3°C° 0 mm 2 m/s 670 mmHg 77%
    01:00 +3°C° 0 mm 2 m/s 670 mmHg 77%
    02:00 +3°C° 0 mm 2 m/s 669 mmHg 76%
    03:00 +2°C° 0 mm 2 m/s 669 mmHg 76%
    04:00 +2°C° 0 mm 2 m/s 669 mmHg 76%
    05:00 +2°C° 0 mm 2 m/s 669 mmHg 75%
    06:00 +2°C° 0 mm 2 m/s 668 mmHg 75%
    07:00 +3°C° 0 mm 2 m/s 669 mmHg 68%
    08:00 +4°C° 0 mm 2 m/s 669 mmHg 61%
    09:00 +6°C° 0 mm 2 m/s 669 mmHg 54%
    10:00 +7°C° 0 mm 2 m/s 669 mmHg 48%
    11:00 +8°C° 0 mm 2 m/s 669 mmHg 43%
    12:00 +9°C° 0 mm 3 m/s 669 mmHg 38%
    13:00 +9°C° 0 mm 3 m/s 669 mmHg 39%
    14:00 +9°C° 0 mm 3 m/s 669 mmHg 39%
    15:00 +9°C° 0 mm 3 m/s 669 mmHg 39%
    16:00 +8°C° 0 mm 2 m/s 668 mmHg 45%
    17:00 +7°C° 0 mm 2 m/s 668 mmHg 51%
    18:00 +6°C° 0 mm 1 m/s 668 mmHg 57%
    19:00 +6°C° 0 mm 1 m/s 668 mmHg 59%
    20:00 +5°C° 0 mm 1 m/s 668 mmHg 61%
    21:00 +5°C° 0 mm 1 m/s 668 mmHg 64%
    22:00 +5°C° 0 mm 1 m/s 668 mmHg 64%
    23:00 +4°C° 0 mm 1 m/s 668 mmHg 65%

    Amanhã, 18 Janeiro, Sexta-feira

    Tempo Temperatura Precipitação Vento Pressão Humidade
    00:00 +3°C° 0 mm 2 m/s 667 mmHg 66%
    01:00 +3°C° 0 mm 2 m/s 667 mmHg 67%
    02:00 +3°C° 0 mm 2 m/s 667 mmHg 68%
    03:00 +2°C° 0 mm 2 m/s 667 mmHg 68%
    04:00 +2°C° 0 mm 2 m/s 667 mmHg 69%
    05:00 +2°C° 0 mm 2 m/s 667 mmHg 70%
    06:00 +2°C° 0 mm 2 m/s 667 mmHg 72%
    07:00 +3°C° 0 mm 2 m/s 667 mmHg 66%
    08:00 +6°C° 0 mm 1 m/s 668 mmHg 60%
    09:00 +7°C° 0 mm 1 m/s 669 mmHg 55%
    10:00 +7°C° 0 mm 2 m/s 669 mmHg 51%
    11:00 +8°C° 0 mm 2 m/s 669 mmHg 48%
    12:00 +9°C° 0 mm 2 m/s 669 mmHg 44%
    13:00 +9°C° 0 mm 2 m/s 669 mmHg 44%
    14:00 +9°C° 0 mm 2 m/s 668 mmHg 43%
    15:00 +9°C° 0 mm 2 m/s 668 mmHg 43%
    16:00 +8°C° 0 mm 2 m/s 668 mmHg 48%
    17:00 +7°C° 0 mm 2 m/s 668 mmHg 53%
    18:00 +7°C° 0 mm 1 m/s 668 mmHg 58%
    19:00 +6°C° 0 mm 1 m/s 668 mmHg 63%
    20:00 +6°C° 0 mm 1 m/s 668 mmHg 67%
    21:00 +5°C° 0 mm 1 m/s 668 mmHg 72%
    22:00 +5°C° 0 mm 1 m/s 668 mmHg 76%
    23:00 +3°C° 0 mm 0 m/s 668 mmHg 81%

    Depois de amanhã, 19 Janeiro, Sábado

    Tempo Temperatura Precipitação Vento Pressão Humidade
    00:00 +3°C° 0 mm 0 m/s 668 mmHg 85%
    01:00 +3°C° 0 mm 0 m/s 668 mmHg 87%
    02:00 +2°C° 0 mm 0 m/s 667 mmHg 88%
    03:00 +2°C° 0 mm 0 m/s 667 mmHg 89%
    04:00 +2°C° 0 mm 0 m/s 667 mmHg 90%
    05:00 +1°C° 0 mm 0 m/s 667 mmHg 90%
    06:00 +1°C° 0 mm 0 m/s 667 mmHg 90%
    07:00 +3°C° 0 mm 0 m/s 668 mmHg 84%
    08:00 +5°C° 0 mm 1 m/s 668 mmHg 77%
    09:00 +7°C° 0 mm 1 m/s 669 mmHg 70%
    10:00 +7°C° 0 mm 1 m/s 669 mmHg 64%
    11:00 +7°C° 0 mm 2 m/s 669 mmHg 58%
    12:00 +8°C° 0 mm 2 m/s 669 mmHg 52%
    13:00 +8°C° 0 mm 2 m/s 668 mmHg 51%
    14:00 +8°C° 0 mm 3 m/s 668 mmHg 50%
    15:00 +8°C° 0 mm 3 m/s 668 mmHg 49%
    16:00 +7°C° 0 mm 2 m/s 668 mmHg 53%
    17:00 +7°C° 0 mm 2 m/s 668 mmHg 56%
    18:00 +7°C° 0 mm 1 m/s 668 mmHg 59%
    19:00 +6°C° 0 mm 1 m/s 668 mmHg 63%
    20:00 +5°C° 0 mm 1 m/s 668 mmHg 66%
    21:00 +3°C° 0 mm 0 m/s 668 mmHg 70%
    22:00 +4°C° 0 mm 1 m/s 668 mmHg 69%
    23:00 +4°C° 0 mm 1 m/s 668 mmHg 68%

    20 Janeiro, Domingo

    Tempo Temperatura Precipitação Vento Pressão Humidade
    00:00 +3°C° 0 mm 2 m/s 668 mmHg 66%
    01:00 +3°C° 0 mm 2 m/s 668 mmHg 68%
    02:00 +3°C° 0 mm 2 m/s 667 mmHg 70%
    03:00 +2°C° 0 mm 2 m/s 667 mmHg 72%
    04:00 +1°C° 0 mm 3 m/s 667 mmHg 73%
    05:00 +2°C° 0 mm 3 m/s 667 mmHg 74%
    06:00 +2°C° 0 mm 3 m/s 667 mmHg 75%
    07:00 +3°C° 0 mm 3 m/s 667 mmHg 73%
    08:00 +4°C° 0 mm 4 m/s 668 mmHg 71%
    09:00 +5°C° 0 mm 4 m/s 668 mmHg 69%
    10:00 +6°C° 0 mm 5 m/s 668 mmHg 67%
    11:00 +7°C° 0 mm 5 m/s 668 mmHg 65%
    12:00 +8°C° 0 mm 6 m/s 668 mmHg 62%
    13:00 +8°C° 0.1 mm 6 m/s 667 mmHg 65%
    14:00 +7°C° 0.1 mm 5 m/s 667 mmHg 68%
    15:00 +7°C° 0.1 mm 5 m/s 666 mmHg 71%
    16:00 +6°C° 0 mm 5 m/s 666 mmHg 76%
    17:00 +5°C° 0 mm 4 m/s 666 mmHg 81%
    18:00 +4°C° 0 mm 4 m/s 666 mmHg 87%
    19:00 +4°C° 0 mm 4 m/s 666 mmHg 87%
    20:00 +4°C° 0 mm 4 m/s 667 mmHg 87%
    21:00 +5°C° 0 mm 3 m/s 667 mmHg 87%
    22:00 +4°C° 0 mm 3 m/s 666 mmHg 88%
    23:00 +4°C° 0 mm 3 m/s 666 mmHg 90%

    21 Janeiro, Segunda-feira

    Tempo Temperatura Precipitação Vento Pressão Humidade
    00:00 +4°C° 0 mm 3 m/s 666 mmHg 91%
    01:00 +4°C° 0 mm 3 m/s 666 mmHg 91%
    02:00 +3°C° 0 mm 3 m/s 666 mmHg 91%
    03:00 +3°C° 0 mm 3 m/s 665 mmHg 91%
    04:00 +3°C° 0.1 mm 3 m/s 665 mmHg 92%
    05:00 +4°C° 0.1 mm 2 m/s 665 mmHg 92%
    06:00 +4°C° 0.1 mm 2 m/s 665 mmHg 93%
    07:00 +3°C° 0.5 mm 3 m/s 666 mmHg 90%
    08:00 +4°C° 0.5 mm 4 m/s 667 mmHg 87%
    09:00 +3°C° 0.5 mm 5 m/s 667 mmHg 85%
    10:00 +3°C° 0.5 mm 6 m/s 668 mmHg 82%
    11:00 +3°C° 0.5 mm 6 m/s 668 mmHg 80%
    12:00 +3°C° 0.5 mm 7 m/s 668 mmHg 78%
    13:00 +3°C° 0.1 mm 7 m/s 668 mmHg 76%
    14:00 +3°C° 0.1 mm 6 m/s 668 mmHg 75%
    15:00 +3°C° 0.1 mm 6 m/s 667 mmHg 73%
    16:00 +2°C° 0 mm 5 m/s 668 mmHg 76%
    17:00 +1°C° 0 mm 5 m/s 668 mmHg 79%
    18:00 +1°C° 0 mm 4 m/s 668 mmHg 82%
    19:00 +1°C° 0 mm 4 m/s 668 mmHg 82%
    20:00 +1°C° 0 mm 4 m/s 669 mmHg 83%
    21:00 +1°C° 0 mm 4 m/s 669 mmHg 83%
    22:00 +1°C° 0 mm 3 m/s 669 mmHg 86%
    23:00 0°C° 0 mm 3 m/s 668 mmHg 89%

    22 Janeiro, Terça-feira

    Tempo Temperatura Precipitação Vento Pressão Humidade
    00:00 +1°C° 0 mm 2 m/s 668 mmHg 91%
    01:00 -1°C° 0 mm 2 m/s 668 mmHg 91%
    02:00 -1°C° 0 mm 2 m/s 667 mmHg 91%
    03:00 +1°C° 0 mm 1 m/s 667 mmHg 92%
    04:00 +1°C° 0 mm 1 m/s 667 mmHg 91%
    05:00 +1°C° 0 mm 1 m/s 667 mmHg 90%
    06:00 0°C° 0 mm 1 m/s 667 mmHg 89%
    07:00 +1°C° 0 mm 2 m/s 667 mmHg 81%
    08:00 +2°C° 0 mm 2 m/s 667 mmHg 73%
    09:00 +3°C° 0 mm 3 m/s 667 mmHg 66%
    10:00 +4°C° 0 mm 3 m/s 667 mmHg 62%
    11:00 +5°C° 0 mm 4 m/s 667 mmHg 58%
    12:00 +6°C° 0 mm 5 m/s 666 mmHg 54%
    13:00 +4°C° 0 mm 6 m/s 665 mmHg 54%
    14:00 +4°C° 0 mm 7 m/s 664 mmHg 53%
    15:00 +4°C° 0 mm 7 m/s 664 mmHg 53%
    16:00 +3°C° 0 mm 7 m/s 663 mmHg 59%
    17:00 +2°C° 0 mm 6 m/s 663 mmHg 65%
    18:00 +1°C° 0 mm 6 m/s 662 mmHg 71%
    19:00 +1°C° 0.1 mm 6 m/s 662 mmHg 74%
    20:00 +1°C° 0.1 mm 6 m/s 661 mmHg 76%
    21:00 +1°C° 0.1 mm 6 m/s 660 mmHg 79%
    22:00 0°C° 0.2 mm 7 m/s 659 mmHg 78%
    23:00 0°C° 0.2 mm 7 m/s 658 mmHg 77%
    Mostrar mais